Probability
13 12 14 13 6 1 0 0 0 0 0 0 0 0 0 0 0 0 0 0 0 0 0 0 0 0 0 0 0 0 0 0 0 0 0 0 0 0 0 0 0 0 0
19 17 19 17 8 3 1 0 0 0 0 0 0 0 0 0 0 0 0 0 0 0 0 0 0 0 0 0 0 0 0 0 0 0 0 0 0 0 0 0 0 0 0
22 19 21 20 13 6 3 1 0 0 0 0 0 0 0 0 0 0 0 0 0 0 0 0 0 0 0 0 0 0 0 0 0 0 0 0 0 0 0 0 0 0 0
18 15 17 20 16 9 4 1 0 0 0 0 0 0 0 0 0 0 0 0 0 0 0 0 0 0 0 0 0 0 0 0 0 0 0 0 0 0 0 0 0 0 0
14 12 15 19 17 11 6 3 1 0 0 0 0 0 0 0 0 0 0 0 0 0 0 0 0 0 0 0 0 0 0 0 0 0 0 0 0 0 0 0 0 0 0
15 14 15 18 16 11 6 3 1 0 0 0 0 0 0 0 0 0 0 0 0 0 0 0 0 0 0 0 0 0 0 0 0 0 0 0 0 0 0 0 0 0 0
23 18 15 17 15 10 5 2 0 0 0 0 0 0 0 0 0 0 0 0 0 0 0 0 0 0 0 0 0 0 0 0 0 0 0 0 0 0 0 0 0 0 0
33 22 15 16 13 8 4 1 0 0 0 0 0 0 0 0 0 0 0 0 0 0 0 0 0 0 0 0 0 0 0 0 0 0 0 0 0 0 0 0 0 0 0
35 25 15 12 9 6 3 1 0 0 0 0 0 0 0 0 0 0 0 0 0 0 0 0 0 0 0 0 0 0 0 0 0 0 0 0 0 0 0 0 0 0 0
39 27 15 10 7 4 2 1 0 0 0 0 0 0 0 0 0 0 0 0 0 0 0 0 0 0 0 0 0 0 0 0 0 0 0 0 0 0 0 0 0 0 0
53 38 21 12 7 3 1 0 0 0 0 0 0 0 0 0 0 0 0 0 0 0 0 0 0 0 0 0 0 0 0 0 0 0 0 0 0 0 0 0 0 0 0
67 54 34 19 10 6 4 1 0 0 0 0 0 0 0 0 0 0 0 0 0 0 0 0 0 0 0 0 0 0 0 0 0 0 0 0 0 0 0 0 0 0 0
70 65 50 31 19 15 10 5 2 1 0 0 0 0 0 0 0 0 0 0 0 0 0 0 0 0 0 0 0 0 0 0 0 0 0 0 0 0 0 0 0 0 0
67 68 61 45 33 26 17 10 6 3 1 0 0 0 0 0 0 0 0 0 0 0 0 0 0 0 0 0 0 0 0 0 0 0 0 0 0 0 0 0 0 0 0
65 68 66 57 47 36 26 17 12 7 3 1 0 0 0 0 0 0 0 0 0 0 0 0 0 0 0 0 0 0 0 0 0 0 0 0 0 0 0 0 0 0 0
62 64 65 62 55 46 37 27 18 12 7 4 1 0 0 0 0 0 0 0 0 0 0 0 0 0 0 0 0 0 0 0 0 0 0 0 0 0 0 0 0 0 0
63 64 66 65 62 55 46 36 27 18 11 7 4 1 0 0 0 0 0 0 0 0 0 0 0 0 0 0 0 0 0 0 0 0 0 0 0 0 0 0 0 0 0
67 70 72 73 71 64 55 47 37 27 18 12 6 2 0 0 0 0 0 0 0 0 0 0 0 0 0 0 0 0 0 0 0 0 0 0 0 0 0 0 0 0 0
65 72 79 81 80 75 67 58 48 37 26 16 8 3 1 0 0 0 0 0 0 0 0 0 0 0 0 0 0 0 0 0 0 0 0 0 0 0 0 0 0 0 0
57 66 77 82 84 82 75 66 57 43 30 20 12 5 2 1 1 1 0 0 0 0 0 0 0 0 0 0 0 0 0 0 0 0 0 0 0 0 0 0 0 0 0
48 56 68 77 82 82 77 69 59 45 30 20 14 9 4 2 2 1 0 0 0 0 0 0 0 0 0 0 0 0 0 0 0 0 0 0 0 0 0 0 0 0 0
40 48 60 71 78 80 76 67 57 44 30 19 14 11 8 5 3 1 1 1 0 0 0 0 0 0 0 0 0 0 0 0 0 0 0 0 0 0 0 0 0 0 0
33 42 54 63 72 76 74 66 57 47 33 22 16 14 12 8 5 3 3 2 1 0 0 0 0 0 0 0 0 0 0 0 0 0 0 0 0 0 0 0 0 0 0
24 33 45 55 62 68 69 66 60 50 38 28 22 17 13 10 7 5 4 3 2 0 0 0 0 0 0 0 0 0 0 0 0 0 0 0 0 0 0 0 0 0 0
17 23 34 44 50 56 62 63 58 48 38 30 24 19 15 11 9 8 6 5 3 3 3 2 1 1 1 1 1 0 0 0 0 0 0 0 0 0 0 0 0 0 0
14 17 25 34 40 47 56 60 54 45 35 29 24 21 17 13 11 9 8 6 6 6 6 5 3 1 2 2 2 1 0 0 0 0 0 0 0 0 0 0 0 0 0
Wind_Speed
13 15 18 18 18 18 18 17 16 15 14 14 13 13 13 13 13 13 13 14 14 15 16 16 16 17 17 18 17 17 16 16 17 17 16 15 16 17 17 16 14 11 17
17 17 18 18 18 18 17 16 15 14 14 13 13 13 13 13 13 13 14 15 15 15 16 16 16 17 17 17 16 15 14 13 14 13 13 12 14 17 18 17 15 11 17
19 18 17 18 18 18 17 16 15 14 14 13 13 13 13 13 13 14 14 15 16 16 16 17 16 17 17 16 15 13 11 9 7 6 8 7 10 16 17 17 16 17 17
19 17 16 17 18 18 17 16 15 14 14 13 13 13 13 14 14 14 15 16 16 16 16 16 16 16 15 14 13 11 9 8 7 8 8 8 8 15 16 16 16 16 16
17 15 17 17 18 18 17 16 15 14 14 13 13 13 13 14 14 14 15 16 16 16 16 16 15 15 14 13 11 10 8 8 8 10 9 8 7 13 15 15 15 15 15
16 15 17 17 18 17 16 16 15 14 13 13 13 13 13 14 14 14 15 15 15 14 15 15 14 14 13 12 10 9 9 9 8 8 8 7 6 12 14 14 14 14 14
15 16 17 17 18 17 16 15 14 14 13 13 13 13 14 14 14 14 14 14 14 14 14 14 13 13 12 10 9 8 9 8 7 8 8 6 7 13 13 13 13 13 13
15 16 15 16 16 16 15 15 14 13 13 13 13 13 14 14 14 13 13 13 13 13 13 12 12 12 11 9 8 7 8 8 7 9 7 6 9 12 12 12 11 11 12
15 15 13 12 13 14 14 13 13 12 12 11 12 13 13 13 13 13 11 11 11 11 11 11 11 10 9 8 6 5 6 7 3 4 8 5 8 10 10 10 10 10 10
13 14 13 12 11 10 10 12 12 12 11 11 12 12 12 11 11 11 10 9 10 10 10 10 9 9 8 6 3 2 5 5 1 5 5 5 8 8 8 8 8 8 9
12 11 12 12 11 10 10 11 11 11 11 11 10 12 11 7 7 6 9 9 9 9 8 8 8 7 6 3 2 2 4 1 3 5 4 7 7 7 6 6 6 6 7
11 11 10 11 10 10 10 9 7 7 8 7 7 8 6 5 6 8 10 9 8 8 7 7 6 6 4 3 3 4 2 2 3 4 4 8 6 5 5 4 4 4 5
10 10 10 9 10 9 7 7 5 5 5 6 9 8 5 5 6 6 4 4 5 6 4 4 4 4 4 3 3 3 2 1 1 3 5 8 6 4 4 3 3 3 3
9 9 9 9 8 9 7 6 5 4 4 4 6 6 4 4 4 5 4 5 4 3 4 4 3 5 4 3 4 3 1 1 1 2 5 8 7 5 4 4 4 4 3
8 8 8 8 8 8 7 5 5 5 4 4 4 4 5 4 4 4 4 4 4 3 4 4 4 3 3 3 3 1 1 1 1 2 4 8 8 7 7 6 6 6 6
8 8 7 8 8 7 6 5 5 5 4 4 4 4 5 4 4 4 3 3 3 2 3 3 3 2 2 2 1 1 2 2 3 3 3 6 9 9 9 9 8 8 8
8 8 8 7 7 7 7 6 4 4 5 4 4 4 5 4 4 3 3 3 3 3 3 2 2 1 1 1 1 2 2 2 2 3 3 4 5 9 11 11 10 10 9
7 8 8 7 7 7 6 5 4 4 4 4 4 4 5 5 5 4 3 3 3 3 2 2 1 1 1 1 2 3 2 2 3 4 3 3 4 5 8 12 11 11 10
7 8 8 7 7 7 6 5 4 4 4 4 4 4 4 5 6 5 3 3 3 3 2 2 2 2 2 2 2 2 2 3 4 4 4 4 4 4 4 8 11 10 9
5 7 8 7 7 6 5 4 3 3 3 3 3 4 5 4 5 5 3 3 3 3 3 2 3 2 2 2 2 3 3 4 4 4 5 4 3 4 4 4 5 7 9
4 5 7 7 7 6 4 5 4 4 3 3 3 4 4 4 5 4 3 3 3 3 3 4 3 4 3 2 1 3 4 6 6 5 4 3 3 3 3 3 3 3 3
6 5 5 7 7 6 5 4 3 4 3 3 3 3 4 4 4 4 4 3 3 3 4 4 3 2 2 3 2 2 3 3 4 4 3 3 2 1 2 2 2 1 1
5 6 5 6 7 7 6 4 3 3 2 2 3 3 4 4 4 4 4 3 3 3 3 4 4 4 3 3 3 3 3 3 2 1 1 2 2 1 1 1 1 1 1
6 5 5 5 6 6 7 6 6 5 4 5 4 4 4 4 4 4 4 3 3 3 3 3 3 3 3 3 3 4 4 2 1 2 2 1 1 1 1 1 1 1 1
6 5 4 5 5 6 7 7 6 5 4 3 4 5 4 3 3 3 3 3 3 3 3 3 3 3 3 4 3 2 3 3 3 3 4 2 1 1 1 1 1 1 1
6 5 4 5 5 5 6 6 6 6 5 4 4 4 3 3 3 3 3 3 2 2 2 2 2 3 3 4 3 3 3 3 3 4 5 4 3 2 1 1 1 1 1
Wind_Direction
132 138 141 137 135 132 130 127 124 120 116 111 106 102 97 93 94 94 95 95 95 96 96 95 93 90 89 88 85 84 84 85 84 82 74 66 66 66 64 64 65 59 63
132 138 140 137 135 133 131 128 125 122 118 115 110 106 102 97 95 96 96 96 96 96 94 93 93 91 89 88 88 87 88 89 91 92 84 70 65 66 65 63 64 64 64
132 138 139 136 135 134 131 129 126 124 122 118 113 108 104 101 97 96 95 95 95 94 93 92 91 90 89 87 87 86 84 79 77 85 86 78 68 67 67 66 64 63 64
133 140 141 137 136 134 132 131 129 127 125 121 116 112 106 103 98 97 94 95 94 92 92 92 92 90 89 87 86 83 72 48 42 70 76 70 65 67 65 64 62 62 62
134 141 137 139 137 135 134 133 132 130 127 122 117 115 110 106 101 99 96 96 95 94 94 94 93 91 89 87 83 75 53 28 50 75 79 72 65 69 67 65 63 62 62
137 134 138 140 138 137 137 135 134 133 130 125 120 117 113 109 105 102 101 100 99 98 98 96 95 92 89 86 78 60 34 19 64 74 71 69 66 72 71 68 66 64 64
135 133 143 140 140 140 139 137 136 134 132 130 126 122 117 113 111 108 107 105 103 103 101 99 97 93 89 84 72 47 23 20 79 80 75 66 69 74 73 70 68 67 66
132 135 143 140 140 140 141 140 138 137 136 134 130 125 120 117 115 114 112 111 108 107 104 102 100 96 91 84 67 37 19 26 76 90 86 74 75 76 74 72 70 69 68
132 136 142 144 142 141 141 141 139 138 136 132 130 124 119 119 119 118 116 114 113 111 108 106 103 99 95 88 68 29 9 11 42 91 94 84 82 79 78 76 73 72 71
134 141 148 150 149 147 142 141 139 138 134 128 126 124 122 122 123 124 118 112 114 114 113 111 109 107 104 100 82 2 337 339 92 97 97 99 91 86 82 80 78 76 75
142 147 152 154 155 152 149 146 140 138 134 130 128 134 137 140 137 136 121 118 118 119 120 121 122 125 127 135 169 266 303 268 100 97 99 112 105 96 91 87 84 82 80
150 153 155 157 156 154 151 150 152 150 149 155 148 157 175 160 139 127 126 127 129 130 131 138 149 161 174 183 214 241 263 222 127 119 128 131 122 116 112 107 102 98 95
155 155 158 158 155 151 147 158 157 156 164 169 159 177 174 134 124 126 137 136 143 153 157 160 179 212 213 183 184 217 236 51 94 118 139 143 142 147 151 152 146 139 131
162 159 159 158 154 152 153 154 151 151 162 158 160 171 153 138 143 152 159 168 171 182 173 179 209 216 206 182 204 219 182 133 121 120 150 158 164 178 192 194 192 190 189
168 165 160 158 159 156 151 150 154 152 158 149 149 163 148 142 159 158 162 165 179 178 165 195 222 203 192 210 219 201 160 220 187 160 156 176 180 193 206 214 216 215 213
172 172 164 161 160 157 152 156 156 154 154 144 143 163 155 153 160 154 156 160 182 165 167 196 224 187 194 218 232 211 219 224 215 198 174 187 195 201 212 220 226 227 227
170 169 169 168 164 162 159 161 151 151 150 146 151 168 159 156 154 149 161 163 180 177 175 196 226 178 212 200 248 260 250 242 230 217 203 190 195 208 214 222 228 232 234
166 167 170 171 170 168 160 156 152 155 148 148 153 165 166 163 158 155 169 176 182 175 178 189 197 189 221 214 242 253 243 232 240 244 234 211 194 193 210 221 229 233 236
169 168 167 166 168 167 161 158 156 153 152 154 155 159 170 171 163 161 177 187 188 177 181 190 195 200 219 227 241 252 255 247 238 236 240 236 216 195 185 205 216 225 232
170 168 166 167 167 163 156 151 148 149 152 150 152 157 165 171 168 164 172 191 188 172 183 191 199 218 228 231 249 255 250 248 240 230 229 229 223 205 192 186 196 219 224
167 169 165 165 167 158 157 160 160 168 162 150 148 155 164 167 165 164 170 185 184 179 189 197 194 212 223 226 258 281 266 244 235 226 215 213 219 207 187 186 179 185 206
170 171 167 162 161 162 164 162 158 155 161 162 157 165 171 169 168 171 173 181 185 185 196 204 197 196 210 194 190 240 290 297 260 224 192 191 206 192 171 170 159 173 162
169 171 173 166 163 162 159 148 141 137 139 159 171 177 182 179 176 173 181 180 185 186 197 204 198 191 210 219 201 198 220 250 307 305 208 182 182 167 161 129 126 100 100
168 167 169 164 161 159 157 158 163 170 177 184 176 176 177 177 175 177 183 189 193 193 203 212 205 201 200 219 226 226 225 216 233 290 300 254 173 162 162 126 110 99 72
155 155 159 157 159 158 162 167 173 179 178 168 163 168 173 173 170 167 178 189 201 201 206 210 209 211 208 212 214 216 236 247 224 227 256 256 254 227 180 152 118 85 68
145 145 154 156 160 156 162 168 177 179 172 167 172 168 168 164 165 167 179 189 199 201 202 206 220 224 223 226 224 212 205 211 213 219 238 237 232 216 180 100 92 82 67